Ravenna, OH

12:15 AM EDT on July 24, 2017 (GMT -0400)
Ravenna

Weather History for KPOV - July, 2013

Change the Weather History Date:

Tuesday, July 16, 2013

  Actual Average (KCAK) Record (KCAK)
Temperature  
Mean Temperature 78 °F -  
Max Temperature 86 °F 82 °F 101 °F (1988)
Min Temperature 71 °F 62 °F 48 °F (1939)
Cooling Degree Days 14    
Growing Degree Days 28 (Base 50)    
Moisture  
Dew Point 74 °F    
Average Humidity 87    
Maximum Humidity 100    
Minimum Humidity 63    
Precipitation  
Precipitation 0.02 in - - ()
Sea Level Pressure  
Sea Level Pressure 30.32 in    
Wind  
Wind Speed 1 mph (West)    
Max Wind Speed 7 mph    
Max Gust Speed -    
Visibility 8 miles    
Events Fog , Rain    
Averages and records for this station are not official NWS values.
T = Trace of Precipitation, MM = Missing Value Source: NWS Daily Summary

Daily Weather History Graph

Daily Weather History Graph

Search for Another Location

Airport or City:

Trip Planner

Search our weather history database for the weather conditions in past years. The results will help you decide how hot, cold, wet, or windy it might be!

Date:

Astronomy

Jul. 16, 2013 Rise Set
Actual Time 6:06 AM EDT 8:55 PM EDT
Civil Twilight 5:33 AM EDT 9:28 PM EDT
Nautical Twilight 4:52 AM EDT 10:09 PM EDT
Astronomical Twilight 4:05 AM EDT 10:56 PM EDT
Moon 2:34 PM EDT (7/16) 12:36 AM EDT (7/16)
Length of Visible Light 15h 54m
Length of Day
14h 49m
First Quarter, 56% of the Moon is Illuminated
Jul 16
First Quarter
Jul 22
Full
Jul 29
Last Quarter
Aug 6
New
Aug 14
First Quarter

Hourly Weather History & Observations

Time (EDT) Temp. Heat Index Dew Point Humidity Pressure Visibility Wind Dir Wind Speed Gust Speed Precip Events Conditions
12:14 AM 74.3 °F - 74.3 °F 100% 30.32 in 7.0 mi Calm Calm - N/A   Clear
12:33 AM - - - N/A% 30.32 in 10.0 mi Calm Calm - N/A   Clear
12:53 AM 73.6 °F - 73.8 °F 100% 30.33 in 7.0 mi Calm Calm - N/A   Clear
1:14 AM 72.7 °F - 72.9 °F 100% 30.33 in 7.0 mi Calm Calm - N/A   Clear
1:33 AM 73.4 °F - 73.6 °F 100% 30.32 in 10.0 mi Calm Calm - N/A   Scattered Clouds
1:53 AM 72.7 °F - 72.9 °F 100% 30.32 in 5.0 mi Calm Calm - N/A   Clear
2:14 AM 72.0 °F - 72.1 °F 100% 30.32 in 5.0 mi Calm Calm - N/A   Clear
2:33 AM - - - N/A% 30.31 in 4.0 mi Calm Calm - N/A   Clear
2:53 AM 71.4 °F - 71.6 °F 100% 30.31 in 1.8 mi Calm Calm - N/A   Mist
3:13 AM 71.6 °F - 71.6 °F 100% 30.31 in 5.0 mi Calm Calm - N/A   Clear
3:33 AM 71.8 °F - 72.0 °F 100% 30.31 in 4.0 mi Calm Calm - N/A   Clear
3:53 AM 72.0 °F - 72.1 °F 100% 30.31 in 7.0 mi Calm Calm - N/A   Clear
4:13 AM 72.0 °F - 72.1 °F 100% 30.32 in 5.0 mi Calm Calm - N/A   Clear
4:33 AM 72.3 °F - 72.3 °F 100% 30.31 in 7.0 mi Calm Calm - N/A   Clear
4:54 AM 72.0 °F - 72.3 °F 100% 30.31 in 0.5 mi Calm Calm - N/A Fog Fog
5:13 AM 71.6 °F - 71.8 °F 100% 30.31 in 0.2 mi Calm Calm - N/A Fog Fog
5:34 AM 72.1 °F - 72.3 °F 100% 30.32 in 5.0 mi Calm Calm - N/A   Scattered Clouds
5:53 AM - - - N/A% 30.32 in 7.0 mi Calm Calm - N/A   Clear
6:13 AM 71.6 °F - 71.8 °F 100% 30.32 in 0.5 mi Calm Calm - N/A Fog Fog
6:33 AM 72.0 °F - 72.1 °F 100% 30.33 in 2.5 mi Calm Calm - N/A   Scattered Clouds
6:53 AM 72.0 °F - 72.3 °F 100% 30.33 in 1.8 mi Calm Calm - N/A   Mist
7:14 AM 73.0 °F - 73.2 °F 100% 30.33 in 7.0 mi Calm Calm - N/A   Clear
7:33 AM 75.4 °F - 75.4 °F 100% 30.35 in 10.0 mi West 3.5 mph - N/A   Clear
7:54 AM 76.8 °F - 76.5 °F 99% 30.35 in 10.0 mi Calm Calm - N/A   Clear
8:13 AM 77.9 °F - 76.5 °F 95% 30.35 in 10.0 mi Calm Calm - N/A   Clear
8:34 AM 79.0 °F - 76.1 °F 91% 30.35 in 10.0 mi Calm Calm - N/A   Clear
8:53 AM 80.6 °F 86.2 °F 75.4 °F 84% 30.35 in 10.0 mi Calm Calm - N/A   Clear
9:13 AM 81.5 °F 88.0 °F 75.4 °F 82% 30.36 in 10.0 mi West 3.5 mph - N/A   Clear
9:34 AM 82.0 °F 88.6 °F 74.8 °F 79% 30.36 in 10.0 mi Calm Calm - N/A   Scattered Clouds
9:53 AM 82.0 °F 88.6 °F 74.8 °F 79% 30.36 in 10.0 mi WSW 3.5 mph - N/A   Mostly Cloudy
10:13 AM 82.2 °F 88.3 °F 74.1 °F 76% 30.36 in 10.0 mi WSW 3.5 mph - N/A   Mostly Cloudy
10:33 AM 83.5 °F 88.8 °F 72.0 °F 68% 30.35 in 10.0 mi WNW 4.6 mph - N/A   Mostly Cloudy
10:53 AM 84.2 °F 89.9 °F 72.0 °F 67% 30.35 in 10.0 mi WSW 5.8 mph - N/A   Overcast
11:13 AM 84.4 °F 90.3 °F 72.5 °F 67% 30.35 in 10.0 mi WSW 6.9 mph - N/A   Overcast
11:33 AM 86.2 °F 92.6 °F 72.1 °F 63% 30.34 in 10.0 mi WNW 5.8 mph - N/A   Mostly Cloudy
11:53 AM 85.6 °F 91.5 °F 72.0 °F 63% 30.33 in 10.0 mi West 5.8 mph - N/A Rain Rain
12:13 PM 79.9 °F - 78.6 °F 96% 30.33 in 10.0 mi NNE 6.9 mph - 0.02 in Rain Light Rain
12:33 PM 78.4 °F - 78.6 °F 100% 30.35 in 10.0 mi Calm Calm - 0.02 in Rain Light Rain
12:53 PM 78.3 °F - 77.7 °F 98% 30.35 in 10.0 mi West 5.8 mph - 0.02 in   Scattered Clouds
1:13 PM 78.3 °F - 72.5 °F 82% 30.34 in 10.0 mi WNW 3.5 mph - N/A   Mostly Cloudy
1:33 PM 77.7 °F - 73.6 °F 87% 30.33 in 10.0 mi West 4.6 mph - N/A   Scattered Clouds
1:53 PM 77.2 °F - 76.5 °F 98% 30.33 in 10.0 mi West 3.5 mph - N/A   Clear
2:13 PM 78.4 °F - 72.5 °F 82% 30.33 in 10.0 mi West 5.8 mph - N/A   Clear
2:34 PM 79.3 °F - 74.3 °F 84% 30.32 in 10.0 mi West 4.6 mph - N/A Rain Light Rain
2:53 PM 79.7 °F - 75.4 °F 87% 30.32 in 10.0 mi West 6.9 mph - N/A   Scattered Clouds
3:14 PM 80.8 °F 87.1 °F 76.1 °F 86% 30.32 in 10.0 mi WSW 3.5 mph - N/A   Clear
3:33 PM 81.7 °F 88.5 °F 75.6 °F 82% 30.31 in 10.0 mi West 6.9 mph - N/A   Clear
3:54 PM 82.4 °F 89.2 °F 74.8 °F 78% 30.31 in 10.0 mi West 5.8 mph - N/A   Clear
4:13 PM 83.3 °F 90.8 °F 75.2 °F 76% 30.31 in 10.0 mi West 6.9 mph - N/A   Clear
4:33 PM 83.8 °F 91.4 °F 74.7 °F 74% 30.31 in 10.0 mi West 6.9 mph - N/A   Clear
4:53 PM 84.4 °F 92.4 °F 74.8 °F 73% 30.31 in 10.0 mi West 6.9 mph - N/A   Clear
5:13 PM 84.6 °F 92.1 °F 74.1 °F 71% 30.30 in 10.0 mi NW 4.6 mph - N/A   Clear
5:33 PM 84.6 °F 91.0 °F 73.0 °F 68% 30.30 in 10.0 mi WNW 6.9 mph - N/A   Clear
5:54 PM 85.1 °F 91.8 °F 73.0 °F 67% 30.29 in 10.0 mi NW 3.5 mph - N/A   Clear
6:13 PM 85.1 °F 91.1 °F 72.1 °F 65% 30.28 in 10.0 mi WNW 5.8 mph - N/A   Clear
6:33 PM 84.6 °F 90.7 °F 72.5 °F 67% 30.28 in 10.0 mi Calm Calm - N/A   Clear
6:53 PM 84.4 °F 91.3 °F 73.6 °F 70% 30.29 in 10.0 mi Calm Calm - N/A   Clear
7:13 PM 84.0 °F 89.6 °F 72.0 °F 67% 30.30 in 10.0 mi WNW 3.5 mph - N/A   Clear
7:33 PM 83.3 °F 89.3 °F 73.0 °F 71% 30.30 in 10.0 mi WNW 3.5 mph - N/A   Clear
7:53 PM 82.8 °F 87.7 °F 71.8 °F 69% 30.30 in 10.0 mi WNW 4.6 mph - N/A   Clear
8:13 PM 82.2 °F 86.9 °F 71.6 °F 70% 30.30 in 10.0 mi Calm Calm - N/A   Clear
8:34 PM 81.5 °F 85.9 °F 71.6 °F 72% 30.30 in 10.0 mi Calm Calm - N/A   Clear
8:53 PM 81.1 °F 85.4 °F 71.6 °F 73% 30.30 in 10.0 mi Calm Calm - N/A   Clear
9:13 PM 78.8 °F - 72.5 °F 81% 30.30 in 10.0 mi Calm Calm - N/A   Clear
9:34 PM 76.8 °F - 75.7 °F 96% 30.30 in 10.0 mi Calm Calm - N/A   Clear
9:53 PM 76.3 °F - 75.7 °F 98% 30.30 in 10.0 mi Calm Calm - N/A   Clear
10:13 PM 76.1 °F - 75.9 °F 99% 30.31 in 10.0 mi Calm Calm - N/A   Clear
10:34 PM 75.2 °F - 75.2 °F 100% 30.31 in 10.0 mi Calm Calm - N/A   Clear
10:53 PM 75.0 °F - 75.2 °F 100% 30.31 in 10.0 mi Calm Calm - N/A   Clear
11:13 PM 73.6 °F - 73.8 °F 100% 30.31 in 10.0 mi Calm Calm - N/A   Clear
11:34 PM 74.3 °F - 74.3 °F 100% 30.31 in 10.0 mi Calm Calm - N/A   Clear
11:53 PM 73.6 °F - 73.8 °F 100% 30.31 in 10.0 mi Calm Calm - N/A   Clear